Regional Weather Roundup
Issued by NWS

Home | Current Version | Previous Version | Text Only | Print | Product List | Glossary Off
Versions: 1 2 3 4 5 6 7 8 9 10 11 12 13 14 15 16 17 18 19 20 21 22 23 24 25 26 27 28 29 30 31 32 33 34 35 36 37 38 39 40 41 42 43 44 45 46 47 48 49 50

000
ASUS43 KMPX 302010
RWRMN
WEATHER ROUNDUP FOR MINNESOTA
NATIONAL WEATHER SERVICE TWIN CITIES/CHANHASSEN MN
300 PM CDT TUE AUG 30 2016


NOTE: "FAIR" INDICATES FEW OR NO CLOUDS BELOW 12,000 FEET WITH NO
SIGNIFICANT WEATHER AND/OR OBSTRUCTIONS TO VISIBILITY. N/A MEANS
CURRENT SKY AND/OR WEATHER CONDITIONS ARE NOT AVAILABLE.

MNZ060>063-068>070-302100-
   Twin Cities Metro

CITY           SKY/WX    TMP DP  RH WIND       PRES   REMARKS
TWIN CITIES    CLOUDY    79  56  45 VRB3      30.17F
ST PAUL        CLOUDY    76  56  49 N5        30.17F
CRYSTAL        MOSUNNY   78  53  41 NW7       30.16F
LAKEVILLE      CLOUDY    75  63  64 NW6       30.17F
EDEN PRAIRIE   CLOUDY    78  58  49 N7        30.16F
LAKEVILLE      CLOUDY    75  63  64 NW6       30.17F
SOUTH ST PAUL  CLOUDY    77  54  44 N7        30.16F
LAKE ELMO      FAIR      73  59  60 NW8       30.18S
$$
MNZ001>005-007-008-013>017-022>024-027-028-302100-
   Northwest Minnesota

CITY           SKY/WX    TMP DP  RH WIND       PRES   REMARKS
BEMIDJI        SUNNY     73  49  42 N10       30.22S
HALLOCK        SUNNY     75  43  31 NW9       30.22S
ROSEAU         SUNNY     73  52  46 NW7       30.21F
WARROAD        SUNNY     73  55  53 W9        30.21F
THIEF RVR FALL SUNNY     74  50  42 W12       30.23F
CROOKSTON      SUNNY     75  50  41 N3        30.23F
FOSSTON        SUNNY     75  52  43 NW3       30.23F
DETROIT LAKES  SUNNY     73  52  46 NW7       30.24F
MOORHEAD       SUNNY     79  48  34 N8        30.22F
MAHNOMEN         N/A     74  53  47 NW8       30.23F
$$
MNZ006-009>011-018-025>026-302100-
   North Central Minnesota

CITY           SKY/WX    TMP DP  RH WIND       PRES   REMARKS
BAUDETTE       SUNNY     73  50  44 NW13      30.20F
FLAG ISLAND    SUNNY     70  46  43 NW3       30.19S
INTL FALLS     SUNNY     73  47  39 NW12      30.18F
WASKISH        SUNNY     73  54  49 W9        30.20F
BIG FORK       SUNNY     73  48  40 N7        30.20S
LONGVILLE      SUNNY     73  52  46 NW7       30.21F
GRAND RAPIDS   SUNNY     72  50  45 NW9       30.21F
CRANE LAKE     SUNNY     70  48  46 NW7       30.19F
ORR            SUNNY     72  48  43 W6        30.16F
COOK           SUNNY     72  52  49 NW8       30.19F
WALKER         FAIR      73  49  43 NW3       30.21F
$$
MNZ012-019>021-037-302100-
   Northeast Minnesota

CITY           SKY/WX    TMP DP  RH WIND       PRES   REMARKS
DULUTH         SUNNY     74  50  42 NW9       30.17S
ELY            SUNNY     72  46  40 NW7       30.17S
HIBBING        SUNNY     71  47  42 NW12      30.19F
EVELETH        SUNNY     73  47  39 NW9G18    30.19F
DULUTH HARBOR  SUNNY     75  55  50 NE3       30.15S
TWO HARBORS    SUNNY     79  55  44 N5        30.13F
SILVER BAY     SUNNY     73  59  60 S7        30.12F
GRAND MARAIS     N/A     68  55  63 SW14      30.11F
G MARAIS ARPRT SUNNY     70  43  37 NW7       30.16S
$$
MNZ029>031-032-039>041-046>048-054>057-064-302100-
   West Central Minnesota

CITY           SKY/WX    TMP DP  RH WIND       PRES   REMARKS
FERGUS FALLS   SUNNY     77  54  44 N5        30.22F
WHEATON        SUNNY     81  54  39 CALM      30.23S
MORRIS         SUNNY     81  52  36 N6        30.21F
ALEXANDRIA     SUNNY     77  50  38 N6        30.24S
ELBOW LAKE     FAIR      76  53  44 NW8       30.22F
WADENA         SUNNY     75  54  46 N3        30.21F
GLENWOOD       SUNNY     75  54  46 N6        30.23S
APPLETON       SUNNY     81  48  32 N3        30.20F
BENSON         SUNNY     81  48  32 E3        30.21S
ORTONVILLE     SUNNY     81  54  39 CALM      30.22S
MADISON        SUNNY     79  57  47 CALM      30.21F
WILLMAR        FAIR      79  54  41 N3        30.22S
$$
MNZ033>034-036-042>043-049>051-058-059-302100-
   Central Minnesota

CITY           SKY/WX    TMP DP  RH WIND       PRES   REMARKS
ST CLOUD       SUNNY     77  51  40 NW6       30.19F
SAUK CENTRE    FAIR      75  52  44 N5        30.22S
PAYNESVILLE    SUNNY     78  46  33 N7        30.21F
AITKIN         SUNNY     77  46  33 NW3       30.18F
PINE RIVER     SUNNY     75  52  43 N8        30.23F
BRAINERD       SUNNY     75  49  39 N8        30.20F
STAPLES        SUNNY     75  46  35 N7        30.21F
LONG PRAIRIE   FAIR      73  52  46 CALM      30.22F
LITTLE FALLS   SUNNY     75  48  38 NW5       30.21S
LITCHFIELD     SUNNY     77  57  50 NW3       30.21S
BUFFALO        SUNNY     76  56  48 N6        30.20F
MAPLE LAKE     SUNNY     77  59  53 CALM      30.20F
HUTCHINSON     SUNNY     77  53  43 N5        30.20F
$$
MNZ037-044-045-052-053-302100-
   East Central Minnesota

CITY           SKY/WX    TMP DP  RH WIND       PRES   REMARKS
PRINCETON      SUNNY     79  46  31 NW8       30.19S
MORA           SUNNY     75  54  46 N3        30.19F
CAMBRIDGE      SUNNY     77  57  50 N6        30.16F
RUSH CITY      MOSUNNY   76  53  44 N3        30.18F
MOOSE LAKE     SUNNY     73  50  43 NW8       30.16F
HINCKLEY       FAIR      77  54  44 N6        30.17F
CLOQUET        SUNNY     73  45  35 NW6       30.17F
MCGREGOR       SUNNY     73  50  43 NW8       30.19F
$$
MNZ071>073-080-081-089-090-097-098-302100-
   Southwest Minnesota

CITY           SKY/WX    TMP DP  RH WIND       PRES   REMARKS
MONTEVIDEO     SUNNY     81  63  54 CALM      30.22F
GRANITE FALLS  SUNNY     80  61  53 NW3       30.21F
CANBY          MOSUNNY   79  59  49 NE5       30.22F
MARSHALL       SUNNY     77  62  59 N3        30.21F
REDWOOD FALLS  SUNNY     79  59  50 CALM      30.19F
OLIVIA         SUNNY     77  57  50 N5        30.19F
WINDOM         PTSUNNY   79  64  61 N5        30.21F
WORTHINGTON    CLOUDY    73  66  78 N6        30.23F
JACKSON        MOSUNNY   75  64  69 N5        30.22F
TRACY          MOSUNNY   78  67  68 NE6       30.21F
SLAYTON        MOSUNNY   75  61  60 NE3       30.23F
$$
MNZ065>067-074>077-082>085-091>093-302100-
   South Central Minnesota

CITY           SKY/WX    TMP DP  RH WIND       PRES   REMARKS
NEW ULM        MOSUNNY   75  59  57 CALM      30.19F
ST JAMES       CLOUDY    77  64  65 N5        30.20F
FAIRMONT       CLOUDY    76  67  73 N7        30.20F
GLENCOE        MOSUNNY   77  60  55 NE3       30.18F
FARIBAULT      CLOUDY    79  63  57 NW7       30.18F
OWATONNA       MOSUNNY   79  63  57 NW9       30.17F
WASECA         MOSUNNY   73  64  73 N13G18    30.19F
ALBERT LEA     CLOUDY    75  66  73 W3        30.18F
$$
MNZ078>079-086>088-094>096-302100-
   Southeast Minnesota

CITY           SKY/WX    TMP DP  RH WIND       PRES   REMARKS
ROCHESTER      CLOUDY    79  64  60 N10       30.17F
RED WING       MOSUNNY   79  63  57 W6        30.13F
STANTON        CLOUDY    77  61  57 NW5       30.16F
DODGE CENTER   MOSUNNY   81  63  54 NW7       30.17F
WINONA         CLOUDY    79  66  65 N9        30.13F
AUSTIN         MOSUNNY   75  64  69 NW7       30.17F
PRESTON        CLOUDY    78  65  64 W8        30.16F
$$
ABBREVIATIONS USED IN REMARKS
   TC - TEMPERATURES IN CELSIUS
  WCI - WIND CHILL INDEX
   HX - HEAT INDEX
  VSB - VISIBILITY
$$




USA.gov is the U.S. government's official web portal to all federal, state and local government web resources and services.